Location: Dappach
(48.9767°N, 9.6998°E)
Time: 22:01:35
(UTC+00:00)

COSMOS 2428 - Pass Details

Date: 20 August 2024
Orbit: 842 x 857 km, 70.9° (Epoch: 09 September)

Event Time Altitude Azimuth Distance (km) Brightness Sun altitude
Exits shadow 22:15:15 20° 78° (ENE) 1,885 4.4 -27.1°
Drops below altitude 10° 22:17:55 10° 52° (NE) 2,489 5.3 -27.2°
Sets 22:20:52 0° 38° (NE) 3,432 6.3 -27.4°
